ATLAS 5 CENTAUR DEB, 44656

Orbit data source: Space-Track

ATLAS 5 CENTAUR DEB, 44656 is space debris in HEO originally from a launch on Wed, 17 Oct 2018 UTC launched from the Air Force Eastern Test Range (AFETR). Debris objects in space refer to the collection of defunct objects orbiting the Earth. Examples of debris include non-operational satellites, rocket bodies, and fragments generated from explosions, collisions, or faulty payload assembly.

Loading next visibility...
Identifier
44656, 2018-079S
Orbit
HEO
Country
Flag of USUS
Related business
Flag of USUnited Launch Alliance/Lockheed Martin (US)
Manufacturer
ULA Decatur
Mission
Spacecraft
Bus & Motor
Unknown
Mass
Unknown
Launch date (UTC)
2018-10-17 (7 years ago)
Launch vehicle
Unknown
Launch site
Air Force Eastern Test Range (AFETR)
Object type
Payload
Rocket body
Debris
Shape & HBR
Unknown shape, 1.1 m
Radar Cross Section
RCS unknown

Expand to show TLE details & history
Last TLE update: 3 weeks ago

TLE from 3 weeks ago
0 ATLAS 5 CENTAUR DEB
1 44656U 18079S   25331.63696526 -.00000042  00000-0  00000-0 0  9994
2 44656  13.5880  43.8013 4634306 291.3218  26.2450  1.83315197 44086
Epoch: 2025-11-27T15:17Z
TLE epoch observation values (Epoch: 2025-11-27T15:17:13.798Z)
Latitude
Longitude
107.64596°
Altitude
12,593.54 km
Speed
5.281 km/s
True Right ascension
02h 54m 58s
True Declination
0° 00' 00"
Sunlit
Object was in daylight at epoch
Visualization orbit readout
Latitude
Unknown
Longitude
Unknown
Altitude
Unknown
Speed
Unknown
Apparent Right ascension
Unknown
Apparent Declination
Unknown
Sunlit
N/A
Visualization observer readout
Local Sidereal Time
12:38:55
Azimuth
Unknown
Elevation
Unknown
Doppler factor
Unknown
Orbital elements
Apogee altitude
34,895.584 km
Perigee altitude
8,754.945 km
Semi-major axis
28,203.402 km
Eccentricity
0.46343
Inclination
13.588°
RAAN
43.8013°
Arg. of periapsis
291.3218°
True anomaly
68.78959°
Mean anomaly
26.245°
Eccentric anomaly
45.03054°
Mean motion
0.45824 °/min
Orbital period
785.62 mins
BSTAR
0
Loading maneuver chart data...
Computing Atmospheric mass density...

Documentation

Showing up to 5 results
|